Regional Weather Roundup
Issued by NWS

Home | Current Version | Previous Version | Text Only | Print | Product List | Glossary On
Versions: 1 2 3 4 5 6 7 8 9 10 11 12 13 14 15 16 17 18 19 20 21 22 23 24 25 26 27 28 29 30 31 32 33 34 35 36 37 38 39 40 41 42 43 44 45 46 47 48 49 50
000
ASUS42 KFFC 302310
RWRGA
WEATHER ROUNDUP FOR GEORGIA
NATIONAL WEATHER SERVICE PEACHTREE CITY GA
700 PM EDT THU JUL 30 2015

NOTE: "FAIR" INDICATES FEW OR NO CLOUDS BELOW 12,000 FEET WITH NO
SIGNIFICANT WEATHER AND/OR OBSTRUCTIONS TO VISIBILITY.

* = USE WITH CAUTION. THE STATIONS MARKED WITH AN ASTERISK MAY NOT
REPORT WEATHER SUCH AS PRECIPITATION, FOG, OR THUNDER AND ARE NOT
QUALITY CONTROLLED BY NWS.

THE REMARK "TC" DENOTES TEMPERATURE READING IN DEGREES CELSIUS.

GAZ001>058-310000-
NORTH GEORGIA

CITY           SKY/WX    TMP DP  RH WIND       PRES   REMARKS
ATLANTA        PTSUNNY   77  71  82 NW12      29.93R THUNDER
ATHENS         SUNNY     96  68  39 MISG      29.90S HX 101
CHAMBLEE       PTSUNNY   94  72  48 NW8       29.92R HX 102
PEACHTREE CITY PTSUNNY   82  68  62 NW10      29.93R
ROME           SUNNY     92  71  50 N12       29.92F HX  98
WEST ATLANTA   CLOUDY    81  72  74 S13       29.93R THUNDER
GAINESVILLE    SUNNY     93  71  48 NW7       29.95S HX 100
CARTERSVILLE   SUNNY     91  70  49 N9        29.93S HX  96


CITY           SKY/WX    TMP DP  RH WIND       PRES   REMARKS
DALTON*        SUNNY     88  73  62 N8        29.95S HX  96
LAWRENCEVILLE* MOSUNNY   93  66  40 CALM      29.90F HX  96
KENNESAW*      MOSUNNY   91  73  55 N10G17    29.94S HX 100
BLAIRSVILLE*     N/A     85  43  22 NW5       30.00F
$$

GAZ059>098-102>109-310000-
CENTRAL GEORGIA

CITY           SKY/WX    TMP DP  RH WIND       PRES   REMARKS
AUGUSTA-BUSH   PTSUNNY   85  73  67 CALM      29.86S HX  91
AUGUSTA-DANIEL PTSUNNY   88  71  57 SW3       29.88S HX  94
COLUMBUS       CLOUDY    83  73  72 CALM      29.88F
MACON          CLOUDY    84  73  69 W3        29.89S HX  90
ROBINS AFB     CLOUDY    85  75  70 SW3       29.89R HX  93


CITY           SKY/WX    TMP DP  RH WIND       PRES   REMARKS
LAGRANGE*      CLOUDY    90  82  75 CALM      29.91S HX 110
SYLVANIA*      MOSUNNY   94  77  58 S3        29.87S HX 108
MILLEDGEVILLE* CLOUDY    91  72  52 W3        29.87R HX  98
$$

GAZ099>101-110>166-310000-
SOUTH GEORGIA

CITY           SKY/WX    TMP DP  RH WIND       PRES   REMARKS
SAVANNAH       MOSUNNY   90  72  55 S10       29.88R HX  97
VALDOSTA       PTSUNNY   80  77  90 CALM      29.92S
ALMA           SUNNY     91  75  59 SW5       29.88F HX 101
ST SIMONS      SUNNY     86  73  65 S5        29.89S HX  93
FT STEWART     SUNNY     92  74  56 S7        29.86R HX 101
ALBANY         MOSUNNY   91  75  59 S5        29.90S HX 101
HUNTER AFB     SUNNY     89  75  64 S6        29.86R HX  99
MOODY AFB      MOSUNNY   82  74  74 S12       29.91R
BRUNSWICK      SUNNY     90  73  58 SE6       29.90R HX  98


CITY           SKY/WX    TMP DP  RH WIND       PRES   REMARKS
BAINBRIDGE*    PTSUNNY   86  75  70 S9G16     29.91S HX  95
MOULTRIE*      MOSUNNY   86  77  74 SW14G22   29.91R HX  97
VIDALIA*       MOSUNNY   91  73  55 S5        29.88R HX 100
WAYCROSS*      SUNNY     94  77  57 SW7       29.88F HX 109
DOUGLAS*       MOSUNNY   91  73  55 S3        29.90S HX 100
$$



USA.gov is the U.S. government's official web portal to all federal, state and local government web resources and services.